MSR625 HECA-OKKK

Flight info

Callsign MSR625
Flight time N/A
Altitude 37000
Route HECA/05C CVO L315 HGD M872 WEJ J874 GAS B417 HFR A788 SOROR
Aircraft B77W/H-SDE1E2E3FGHIJ2J3J4J5M1RWXY/LB1D1

Departure

Time N/A
Airport Cairo International Airport (HECA)

Arrival

Time 2026-04-29 19:33
Airport Kuwait International Airport (OKKK)
Time Latitude Longitude Altitude Speed Heading
2026-04-29 18:48 26.49976 44.00928 37015 ft 568 kts 42°
2026-04-29 18:48 26.52798 44.04063 37018 ft 570 kts 43°
2026-04-29 18:49 26.58387 44.10315 37023 ft 569 kts 43°
2026-04-29 18:49 26.64012 44.16649 37019 ft 571 kts 43°
2026-04-29 18:50 26.69563 44.22927 37015 ft 569 kts 43°
2026-04-29 18:50 26.75167 44.29284 37018 ft 571 kts 43°
2026-04-29 18:51 26.80740 44.35623 37030 ft 570 kts 43°
2026-04-29 18:51 26.86324 44.41984 37029 ft 572 kts 44°
2026-04-29 18:52 26.91888 44.48335 37023 ft 571 kts 44°
2026-04-29 18:52 26.97471 44.54718 37031 ft 574 kts 43°
2026-04-29 18:53 27.03056 44.61117 37036 ft 574 kts 44°
2026-04-29 18:53 27.08607 44.67490 37015 ft 573 kts 44°
2026-04-29 18:54 27.14207 44.73930 37017 ft 576 kts 44°
2026-04-29 18:54 27.19813 44.80387 37021 ft 574 kts 44°
2026-04-29 18:55 27.25403 44.86835 37028 ft 576 kts 44°
2026-04-29 18:55 27.30995 44.93296 37030 ft 578 kts 44°
2026-04-29 18:56 27.36595 44.99775 37028 ft 578 kts 44°
2026-04-29 18:56 27.42224 45.06298 37029 ft 577 kts 44°
2026-04-29 18:57 27.47838 45.12815 37026 ft 578 kts 44°
2026-04-29 18:57 27.53497 45.19392 37017 ft 578 kts 44°
2026-04-29 18:58 27.59166 45.25789 37015 ft 577 kts 39°
2026-04-29 18:58 27.65113 45.31878 37005 ft 577 kts 39°
2026-04-29 18:59 27.71064 45.37988 37012 ft 578 kts 39°
2026-04-29 18:59 27.77042 45.44159 37014 ft 579 kts 39°
2026-04-29 19:00 27.82993 45.50323 37013 ft 579 kts 40°
2026-04-29 19:00 27.88959 45.56527 37012 ft 579 kts 41°
2026-04-29 19:01 27.94586 45.63065 37011 ft 582 kts 44°
2026-04-29 19:01 28.00156 45.69665 36989 ft 581 kts 44°
2026-04-29 19:02 28.04827 45.75186 36995 ft 584 kts 44°
2026-04-29 19:02 28.11356 45.82899 36984 ft 582 kts 44°
2026-04-29 19:03 28.16968 45.89529 36989 ft 584 kts 44°
2026-04-29 19:03 28.22612 45.96202 36982 ft 582 kts 45°
2026-04-29 19:04 28.28241 46.02865 36983 ft 584 kts 44°
2026-04-29 19:04 28.33235 46.10092 36985 ft 587 kts 60°
2026-04-29 19:05 28.36453 46.18511 36982 ft 582 kts 78°
2026-04-29 19:05 28.38010 46.27476 36993 ft 580 kts 85°
2026-04-29 19:06 28.39297 46.36480 36992 ft 574 kts 86°
2026-04-29 19:07 28.41214 46.49980 36993 ft 577 kts 85°
2026-04-29 19:07 28.42487 46.58974 36994 ft 575 kts 85°
2026-04-29 19:08 28.43743 46.67902 36974 ft 578 kts 86°
2026-04-29 19:08 28.45003 46.76884 36979 ft 575 kts 85°
2026-04-29 19:09 28.46257 46.85878 36977 ft 577 kts 86°
2026-04-29 19:09 28.47442 46.94415 36977 ft 576 kts 86°
2026-04-29 19:10 28.47962 46.98175 36980 ft 578 kts 86°
2026-04-29 19:11 28.49205 47.07200 36965 ft 576 kts 86°
2026-04-29 19:11 28.50435 47.16161 36563 ft 570 kts 86°
2026-04-29 19:11 28.51042 47.20609 35402 ft 578 kts 86°
2026-04-29 19:12 28.51654 47.25124 34132 ft 587 kts 86°
2026-04-29 19:12 28.52276 47.29711 33039 ft 592 kts 85°
2026-04-29 19:12 28.52908 47.34382 32011 ft 596 kts 85°
2026-04-29 19:12 28.53322 47.37439 31387 ft 599 kts 85°
2026-04-29 19:13 28.54167 47.43705 30210 ft 600 kts 84°
2026-04-29 19:13 28.54791 47.48332 29586 ft 594 kts 84°
2026-04-29 19:13 28.55415 47.52974 28888 ft 590 kts 84°
2026-04-29 19:13 28.56034 47.57597 28156 ft 586 kts 84°
2026-04-29 19:14 28.56635 47.62098 27388 ft 581 kts 84°
2026-04-29 19:14 28.57103 47.66594 26473 ft 563 kts 91°
2026-04-29 19:14 28.57256 47.70963 25830 ft 541 kts 92°
2026-04-29 19:14 28.57361 47.75168 25154 ft 523 kts 92°
2026-04-29 19:15 28.57456 47.79192 24465 ft 507 kts 92°
2026-04-29 19:15 28.57548 47.83176 23737 ft 492 kts 92°
2026-04-29 19:15 28.57633 47.86961 23047 ft 477 kts 92°
2026-04-29 19:15 28.57715 47.90683 22344 ft 463 kts 92°
2026-04-29 19:16 28.57793 47.94266 21743 ft 455 kts 92°
2026-04-29 19:16 28.58055 47.97967 21057 ft 473 kts 83°
2026-04-29 19:16 28.58833 48.01598 20327 ft 474 kts 73°
2026-04-29 19:16 28.60120 48.05021 19740 ft 470 kts 62°
2026-04-29 19:17 28.61853 48.08114 19281 ft 462 kts 52°
2026-04-29 19:17 28.63966 48.10806 18823 ft 453 kts 42°
2026-04-29 19:17 28.66409 48.13034 18400 ft 442 kts 31°
2026-04-29 19:17 28.69048 48.14692 18230 ft 422 kts 20°
2026-04-29 19:18 28.71748 48.15817 17887 ft 398 kts 10°
2026-04-29 19:18 28.73512 48.16277 17671 ft 383 kts
2026-04-29 19:18 28.76896 48.16506 17281 ft 352 kts 350°
2026-04-29 19:18 28.79272 48.16139 16953 ft 332 kts 340°
2026-04-29 19:19 28.81433 48.15410 16498 ft 319 kts 332°
2026-04-29 19:19 28.83432 48.14345 15985 ft 311 kts 323°
2026-04-29 19:19 28.85168 48.13016 15899 ft 293 kts 315°
2026-04-29 19:19 28.86670 48.11494 15724 ft 281 kts 308°
2026-04-29 19:20 28.87947 48.09814 15362 ft 277 kts 301°
2026-04-29 19:20 28.89072 48.08044 15016 ft 276 kts 303°
2026-04-29 19:20 28.90335 48.06382 14730 ft 276 kts 308°
2026-04-29 19:20 28.91715 48.04861 14367 ft 278 kts 313°
2026-04-29 19:21 28.93202 48.03448 14029 ft 279 kts 316°
2026-04-29 19:21 28.94648 48.02007 13718 ft 271 kts 304°
2026-04-29 19:21 28.95650 48.00226 13341 ft 265 kts 290°
2026-04-29 19:21 28.96572 47.98416 12972 ft 270 kts 309°
2026-04-29 19:22 28.98146 47.97161 12602 ft 279 kts 331°
2026-04-29 19:22 28.99925 47.96315 12337 ft 278 kts 333°
2026-04-29 19:22 29.01730 47.95502 12006 ft 277 kts 334°
2026-04-29 19:22 29.03531 47.94685 11686 ft 276 kts 333°
2026-04-29 19:23 29.05335 47.93866 11156 ft 283 kts 334°
2026-04-29 19:23 29.07178 47.93011 10314 ft 294 kts 334°
2026-04-29 19:23 29.09053 47.92116 9457 ft 288 kts 334°
2026-04-29 19:23 29.10865 47.91232 8626 ft 280 kts 334°
2026-04-29 19:24 29.12609 47.90360 7805 ft 274 kts 334°
2026-04-29 19:24 29.14335 47.89463 6968 ft 268 kts 334°
2026-04-29 19:24 29.15987 47.88578 6137 ft 263 kts 334°
2026-04-29 19:24 29.17607 47.87687 5312 ft 259 kts 334°
2026-04-29 19:25 29.19206 47.86789 4487 ft 252 kts 334°
2026-04-29 19:25 29.20755 47.85897 3669 ft 257 kts 334°
2026-04-29 19:25 29.22358 47.84954 3117 ft 256 kts 334°
2026-04-29 19:25 29.23916 47.84030 3028 ft 243 kts 334°
2026-04-29 19:26 29.25401 47.83148 2990 ft 236 kts 334°
2026-04-29 19:26 29.26848 47.82287 2987 ft 234 kts 334°
2026-04-29 19:26 29.28292 47.81425 2984 ft 233 kts 334°
2026-04-29 19:26 29.29745 47.80561 2986 ft 232 kts 334°
2026-04-29 19:27 29.31181 47.79710 2985 ft 233 kts 334°
2026-04-29 19:27 29.32647 47.78852 2986 ft 234 kts 335°
2026-04-29 19:27 29.34216 47.78433 2974 ft 234 kts
2026-04-29 19:27 29.35733 47.78993 2883 ft 233 kts 33°
2026-04-29 19:28 29.36782 47.80386 2761 ft 229 kts 60°
2026-04-29 19:28 29.37435 47.82011 2731 ft 218 kts 64°
2026-04-29 19:28 29.38023 47.83568 2617 ft 209 kts 64°
2026-04-29 19:28 29.38588 47.85149 2394 ft 218 kts 72°
2026-04-29 19:29 29.38601 47.86849 2140 ft 219 kts 106°
2026-04-29 19:29 29.37863 47.88363 2009 ft 215 kts 126°
2026-04-29 19:29 29.37343 47.88983 1985 ft 211 kts 141°
2026-04-29 19:29 29.36097 47.89828 1993 ft 210 kts 153°
2026-04-29 19:30 29.34752 47.90522 1997 ft 210 kts 155°
2026-04-29 19:30 29.33412 47.91211 2001 ft 210 kts 154°
2026-04-29 19:30 29.32087 47.91910 1851 ft 208 kts 154°
2026-04-29 19:30 29.30805 47.92588 1570 ft 200 kts 154°
2026-04-29 19:31 29.29563 47.93243 1312 ft 189 kts 154°
2026-04-29 19:31 29.28371 47.93875 1078 ft 188 kts 154°
2026-04-29 19:31 29.27301 47.94439 895 ft 173 kts 155°
2026-04-29 19:31 29.26225 47.95007 596 ft 168 kts 155°
2026-04-29 19:32 29.25192 47.95553 410 ft 158 kts 156°
2026-04-29 19:32 29.24205 47.96072 212 ft 152 kts 156°
2026-04-29 19:32 29.23277 47.96554 154 ft 135 kts 154°
2026-04-29 19:32 29.22541 47.96952 163 ft 98 kts 154°
2026-04-29 19:33 29.22185 47.97144 166 ft 36 kts 155°
2026-04-29 19:33 29.22022 47.97249 169 ft 7 kts 140°
2026-04-29 19:33 29.21988 47.97287 170 ft 6 kts 127°
2026-04-29 19:33 29.21963 47.97337 170 ft 7 kts 115°
2026-04-29 19:34 29.21942 47.97393 171 ft 7 kts 112°
2026-04-29 19:34 29.21931 47.97442 172 ft 4 kts 84°
2026-04-29 19:34 29.21941 47.97475 172 ft 3 kts 62°
2026-04-29 19:34 29.21957 47.97492 173 ft 5 kts 26°
2026-04-29 19:35 29.22036 47.97472 172 ft 15 kts 336°
2026-04-29 19:35 29.22134 47.97418 171 ft 15 kts 334°
2026-04-29 19:35 29.22231 47.97366 170 ft 15 kts 335°
2026-04-29 19:35 29.22329 47.97315 169 ft 15 kts 336°
2026-04-29 19:36 29.22428 47.97261 168 ft 15 kts 335°
2026-04-29 19:36 29.22526 47.97209 167 ft 15 kts 334°